Gene Autry, OK

2:22 AM CDT on September 26, 2016 (GMT -0500)
Ardmore Municipal

Weather History for KADM - September, 2011

Change the Weather History Date:

Friday, September 2, 2011

  Actual Average Record
Temperature  
Mean Temperature 82 °F -  
Max Temperature 96 °F 89 °F 111 °F (2000)
Min Temperature 69 °F 68 °F 33 °F (1996)
Cooling Degree Days 18    
Growing Degree Days 32 (Base 50)    
Moisture  
Dew Point 58 °F    
Average Humidity 53    
Maximum Humidity 68    
Minimum Humidity 28    
Precipitation  
Precipitation 0.00 in - - ()
Sea Level Pressure  
Sea Level Pressure 29.91 in    
Wind  
Wind Speed 1 mph (ESE)    
Max Wind Speed 9 mph    
Max Gust Speed -    
Visibility 10 miles    
Events      
Averages and records for this station are not official NWS values.
T = Trace of Precipitation, MM = Missing Value Source: NWS Daily Summary

Daily Weather History Graph

Daily Weather History Graph

Search for Another Location

Airport or City:

Trip Planner

Search our weather history database for the weather conditions in past years. The results will help you decide how hot, cold, wet, or windy it might be!

Date:

Astronomy

Sep. 02, 2011 Rise Set
Actual Time 7:01 AM CDT 7:53 PM CDT
Civil Twilight 6:36 AM CDT 8:18 PM CDT
Nautical Twilight 6:06 AM CDT 8:48 PM CDT
Astronomical Twilight 5:34 AM CDT 9:19 PM CDT
Moon 12:16 PM CDT (9/2) 10:48 PM CDT (9/2)
Length of Visible Light 13h 42m
Length of Day
12h 51m
Waxing Crescent, 28% of the Moon is Illuminated
Sep 2
Waxing Crescent
Sep 4
First Quarter
Sep 12
Full
Sep 20
Last Quarter
Sep 27
New

Hourly Weather History & Observations

Time (CDT) Temp. Heat Index Dew Point Humidity Pressure Visibility Wind Dir Wind Speed Gust Speed Precip Events Conditions
12:15 AM 73.4 °F - 55.4 °F 53% 29.93 in 10.0 mi Calm Calm - N/A   Clear
12:35 AM 73.4 °F - 57.2 °F 57% 29.93 in 10.0 mi Calm Calm - N/A   Clear
12:55 AM 71.6 °F - 57.2 °F 60% 29.93 in 10.0 mi Calm Calm - N/A   Clear
1:15 AM 69.8 °F - 59.0 °F 68% 29.93 in 10.0 mi Calm Calm - N/A   Clear
1:35 AM 69.8 °F - 59.0 °F 68% 29.93 in 10.0 mi Calm Calm - N/A   Clear
1:55 AM 69.8 °F - 59.0 °F 68% 29.93 in 10.0 mi Calm Calm - N/A   Clear
2:15 AM 69.8 °F - 59.0 °F 68% 29.93 in 10.0 mi Calm Calm - N/A   Clear
2:35 AM 69.8 °F - 57.2 °F 64% 29.93 in 10.0 mi Calm Calm - N/A   Clear
2:55 AM 71.6 °F - 57.2 °F 60% 29.93 in 10.0 mi NE 3.5 mph - N/A   Clear
3:15 AM 69.8 °F - 59.0 °F 68% 29.93 in 10.0 mi Calm Calm - N/A   Clear
3:35 AM 71.6 °F - 59.0 °F 64% 29.93 in 10.0 mi West 3.5 mph - N/A   Clear
3:55 AM 71.6 °F - 57.2 °F 60% 29.93 in 10.0 mi Calm Calm - N/A   Clear
4:15 AM 71.6 °F - 59.0 °F 64% 29.93 in 10.0 mi Calm Calm - N/A   Clear
4:35 AM 69.8 °F - 59.0 °F 68% 29.93 in 10.0 mi ENE 3.5 mph - N/A   Clear
4:55 AM 69.8 °F - 59.0 °F 68% 29.93 in 10.0 mi Calm Calm - N/A   Clear
5:15 AM 71.6 °F - 59.0 °F 64% 29.94 in 10.0 mi Calm Calm - N/A   Clear
5:35 AM 69.8 °F - 59.0 °F 68% 29.94 in 10.0 mi Calm Calm - N/A   Clear
5:55 AM 71.6 °F - 59.0 °F 64% 29.94 in 10.0 mi Calm Calm - N/A   Clear
6:15 AM 71.6 °F - 59.0 °F 64% 29.94 in 10.0 mi Calm Calm - N/A   Clear
6:35 AM 71.6 °F - 59.0 °F 64% 29.95 in 10.0 mi ESE 3.5 mph - N/A   Clear
7:55 AM 78.8 °F - 62.6 °F 57% 29.95 in 10.0 mi East 5.8 mph - N/A   Clear
9:55 AM 86.0 °F 88.2 °F 66.2 °F 51% 29.94 in 10.0 mi Calm Calm - N/A   Clear
2:55 PM 96.8 °F 97.1 °F 60.8 °F 30% 29.87 in 10.0 mi ESE 9.2 mph - N/A   Mostly Cloudy
3:55 PM 96.8 °F 96.2 °F 59.0 °F 28% 29.85 in 10.0 mi ESE 9.2 mph - N/A   Clear
5:55 PM 96.8 °F 96.2 °F 59.0 °F 28% 29.83 in 10.0 mi ESE 5.8 mph - N/A   Clear
6:55 PM 95.0 °F 93.7 °F 57.2 °F 28% 29.82 in 10.0 mi ESE 5.8 mph - N/A   Clear
7:55 PM 89.6 °F 88.1 °F 57.2 °F 33% 29.82 in 10.0 mi SE 4.6 mph - N/A   Clear
9:55 PM 84.2 °F 83.0 °F 55.4 °F 37% 29.85 in 10.0 mi East 5.8 mph - N/A   Clear
10:15 PM 84.2 °F 83.0 °F 55.4 °F 37% 29.86 in 10.0 mi ESE 4.6 mph - N/A   Clear
10:35 PM 84.2 °F 83.0 °F 55.4 °F 37% 29.86 in 10.0 mi SE 3.5 mph - N/A   Clear
10:55 PM 82.4 °F 81.7 °F 55.4 °F 39% 29.86 in 10.0 mi ESE 4.6 mph - N/A   Clear
11:15 PM 82.4 °F 81.7 °F 55.4 °F 39% 29.86 in 10.0 mi ESE 3.5 mph - N/A   Clear
11:35 PM 82.4 °F 81.7 °F 55.4 °F 39% 29.86 in 10.0 mi ESE 3.5 mph - N/A   Clear